This is the latest recevied weather packets stored in our database for station/object OK0EK-12. If no packets are shown the sender has not sent any weather packets the latest 10 day(s).
| Time | Temp. | Humidity | Pressure | Rain* | Wind** | Luminosity | Snow |
|---|---|---|---|---|---|---|---|
| 1777510472 | -3.89° C | 76% | 1110.2 hPa | - | - | - | - |
| 1777509872 | -3.89° C | 76% | 1110.2 hPa | - | - | - | - |
| 1777509272 | -3.89° C | 75% | 1110.1 hPa | - | - | - | - |
| 1777508672 | -3.33° C | 75% | 1110 hPa | - | - | - | - |
| 1777508071 | -3.33° C | 74% | 1110 hPa | - | - | - | - |
| 1777506871 | -2.78° C | 71% | 1109.9 hPa | - | - | - | - |
| 1777506271 | -2.78° C | 71% | 1110 hPa | - | - | - | - |
| 1777505671 | -2.78° C | 71% | 1109.9 hPa | - | - | - | - |
| 1777505071 | -2.78° C | 73% | 1110 hPa | - | - | - | - |
| 1777504471 | -2.78° C | 73% | 1110 hPa | - | - | - | - |
| 1777503870 | -2.78° C | 74% | 1110 hPa | - | - | - | - |
| 1777503270 | -2.78° C | 73% | 1109.8 hPa | - | - | - | - |
| 1777502670 | -2.78° C | 72% | 1109.8 hPa | - | - | - | - |
| 1777502068 | -2.78° C | 71% | 1109.7 hPa | - | - | - | - |
| 1777501470 | -2.22° C | 70% | 1109.7 hPa | - | - | - | - |
| 1777500870 | -2.22° C | 69% | 1109.6 hPa | - | - | - | - |
| 1777500268 | -1.67° C | 67% | 1109.7 hPa | - | - | - | - |
| 1777499670 | -2.22° C | 69% | 1109.6 hPa | - | - | - | - |
| 1777499069 | -1.67° C | 68% | 1109.5 hPa | - | - | - | - |
| 1777498467 | -1.67° C | 66% | 1109.4 hPa | - | - | - | - |
| 1777497869 | -1.11° C | 66% | 1109.3 hPa | - | - | - | - |
| 1777497276 | -1.11° C | 66% | 1109.4 hPa | - | - | - | - |
| 1777496671 | -0.56° C | 64% | 1109.1 hPa | - | - | - | - |
| 1777496081 | -0.56° C | 61% | 1109 hPa | - | - | - | - |
| 1777495476 | 0° C | 57% | 1108.8 hPa | - | - | - | - |
* Rain since midnight (hover to see other rain measurements)
** Current wind speed in m/s (hover to see current wind gust speed)